• In Hungary
  • List of Countries
  • For 7 days
  • Water Temperature
  • Satellite Maps
  • Weather Map
  • News
  • Weather Widgets
  • user-avatar
    Login

    Hourly Weather Syracuse

    Today, 25 September, Tuesday

    Time Temperature Precipitation Wind Pressure Humidity
    00:00 +13°C° 0.1 mm 6 mps 758 mmHg 82%
    01:00 +11°C° 0.1 mm 7 mps 758 mmHg 84%
    02:00 +11°C° 1.6 mm 7 mps 758 mmHg 87%
    03:00 +11°C° 1.6 mm 7 mps 758 mmHg 90%
    04:00 +11°C° 1.6 mm 7 mps 757 mmHg 92%
    05:00 +11°C° 1.3 mm 7 mps 757 mmHg 93%
    06:00 +11°C° 1.3 mm 7 mps 757 mmHg 93%
    07:00 +11°C° 1.3 mm 7 mps 756 mmHg 93%
    08:00 +12°C° 2.1 mm 7 mps 756 mmHg 93%
    09:00 +12°C° 2.1 mm 7 mps 755 mmHg 92%
    10:00 +14°C° 2.1 mm 7 mps 755 mmHg 92%
    11:00 +15°C° 0.6 mm 7 mps 754 mmHg 92%
    12:00 +16°C° 0.6 mm 6 mps 754 mmHg 92%
    13:00 +17°C° 0.6 mm 6 mps 753 mmHg 92%
    14:00 +19°C° 0.1 mm 5 mps 753 mmHg 91%
    15:00 +20°C° 0.1 mm 5 mps 752 mmHg 90%
    16:00 +21°C° 0.1 mm 5 mps 751 mmHg 89%
    17:00 +20°C° 0.3 mm 4 mps 751 mmHg 91%
    18:00 +20°C° 0.3 mm 4 mps 751 mmHg 93%
    19:00 +20°C° 0.3 mm 4 mps 751 mmHg 95%
    20:00 +20°C° 0.1 mm 4 mps 750 mmHg 95%
    21:00 +20°C° 0.1 mm 5 mps 750 mmHg 95%
    22:00 +20°C° 0.1 mm 5 mps 750 mmHg 94%
    23:00 +21°C° 0.5 mm 5 mps 749 mmHg 94%

    Tomorrow, 26 September, Wednesday

    Time Temperature Precipitation Wind Pressure Humidity
    00:00 +21°C° 0.5 mm 5 mps 749 mmHg 94%
    01:00 +21°C° 0.5 mm 5 mps 748 mmHg 94%
    02:00 +21°C° 1.9 mm 6 mps 747 mmHg 94%
    03:00 +21°C° 1.9 mm 6 mps 747 mmHg 94%
    04:00 +21°C° 1.9 mm 6 mps 746 mmHg 94%
    05:00 +21°C° 1 mm 6 mps 746 mmHg 94%
    06:00 +21°C° 1 mm 6 mps 746 mmHg 94%
    07:00 +22°C° 1 mm 6 mps 745 mmHg 94%
    08:00 +22°C° 1.9 mm 6 mps 745 mmHg 93%
    09:00 +22°C° 1.9 mm 6 mps 745 mmHg 93%
    10:00 +22°C° 1.9 mm 6 mps 744 mmHg 93%
    11:00 +22°C° 1.2 mm 6 mps 744 mmHg 93%
    12:00 +22°C° 1.2 mm 7 mps 744 mmHg 93%
    13:00 +22°C° 1.2 mm 7 mps 744 mmHg 92%
    14:00 +21°C° 0.4 mm 7 mps 744 mmHg 91%
    15:00 +20°C° 0.4 mm 6 mps 745 mmHg 90%
    16:00 +19°C° 0.4 mm 6 mps 745 mmHg 89%
    17:00 +16°C° 0 mm 5 mps 746 mmHg 88%
    18:00 +15°C° 0 mm 5 mps 747 mmHg 86%
    19:00 +14°C° 0 mm 4 mps 748 mmHg 85%
    20:00 +13°C° 0 mm 4 mps 749 mmHg 85%
    21:00 +13°C° 0 mm 3 mps 750 mmHg 85%
    22:00 +12°C° 0 mm 3 mps 750 mmHg 85%
    23:00 +13°C° 0 mm 2 mps 751 mmHg 85%

    Day after tomorrow, 27 September, Thursday

    Time Temperature Precipitation Wind Pressure Humidity
    00:00 +13°C° 0 mm 2 mps 751 mmHg 85%
    01:00 +12°C° 0 mm 2 mps 752 mmHg 86%
    02:00 +12°C° 0 mm 1 mps 752 mmHg 87%
    03:00 +11°C° 0 mm 1 mps 752 mmHg 87%
    04:00 +11°C° 0 mm 1 mps 752 mmHg 88%
    05:00 +11°C° 0 mm 1 mps 753 mmHg 88%
    06:00 +11°C° 0 mm 1 mps 753 mmHg 87%
    07:00 +11°C° 0 mm 1 mps 753 mmHg 87%
    08:00 +13°C° 0 mm 1 mps 753 mmHg 80%
    09:00 +15°C° 0 mm 1 mps 754 mmHg 72%
    10:00 +18°C° 0 mm 1 mps 754 mmHg 65%
    11:00 +19°C° 0 mm 1 mps 753 mmHg 62%
    12:00 +19°C° 0 mm 2 mps 753 mmHg 58%
    13:00 +20°C° 0 mm 2 mps 753 mmHg 55%
    14:00 +19°C° 0 mm 2 mps 752 mmHg 59%
    15:00 +19°C° 0 mm 2 mps 752 mmHg 62%
    16:00 +19°C° 0 mm 2 mps 751 mmHg 65%
    17:00 +18°C° 0 mm 2 mps 751 mmHg 69%
    18:00 +16°C° 0 mm 2 mps 751 mmHg 73%
    19:00 +14°C° 0 mm 2 mps 752 mmHg 77%
    20:00 +14°C° 0 mm 2 mps 752 mmHg 78%
    21:00 +13°C° 0 mm 2 mps 752 mmHg 80%
    22:00 +12°C° 0 mm 3 mps 752 mmHg 81%
    23:00 +11°C° 0 mm 3 mps 752 mmHg 83%

    28 September, Friday

    Time Temperature Precipitation Wind Pressure Humidity
    00:00 +11°C° 0 mm 3 mps 751 mmHg 85%
    01:00 +11°C° 0 mm 3 mps 751 mmHg 87%
    02:00 +11°C° 0 mm 3 mps 751 mmHg 86%
    03:00 +11°C° 0 mm 3 mps 751 mmHg 86%
    04:00 +11°C° 0 mm 3 mps 751 mmHg 86%
    05:00 +11°C° 0 mm 3 mps 751 mmHg 86%
    06:00 +12°C° 0 mm 3 mps 751 mmHg 87%
    07:00 +12°C° 0 mm 3 mps 752 mmHg 87%
    08:00 +14°C° 0 mm 3 mps 752 mmHg 83%
    09:00 +17°C° 0 mm 3 mps 752 mmHg 78%
    10:00 +19°C° 0 mm 4 mps 752 mmHg 73%
    11:00 +20°C° 0 mm 4 mps 751 mmHg 69%
    12:00 +21°C° 0 mm 4 mps 751 mmHg 64%
    13:00 +21°C° 0 mm 4 mps 751 mmHg 60%
    14:00 +21°C° 0 mm 4 mps 751 mmHg 62%
    15:00 +21°C° 0 mm 4 mps 750 mmHg 64%
    16:00 +21°C° 0 mm 3 mps 750 mmHg 66%
    17:00 +19°C° 0 mm 3 mps 751 mmHg 72%
    18:00 +18°C° 0 mm 3 mps 751 mmHg 78%
    19:00 +16°C° 0 mm 3 mps 751 mmHg 84%
    20:00 +14°C° 0 mm 3 mps 752 mmHg 84%
    21:00 +14°C° 0 mm 3 mps 752 mmHg 84%
    22:00 +14°C° 0 mm 3 mps 753 mmHg 85%
    23:00 +14°C° 0 mm 3 mps 753 mmHg 86%

    29 September, Saturday

    Time Temperature Precipitation Wind Pressure Humidity
    00:00 +14°C° 0 mm 2 mps 753 mmHg 87%
    01:00 +14°C° 0 mm 2 mps 753 mmHg 88%
    02:00 +14°C° 0 mm 2 mps 754 mmHg 87%
    03:00 +13°C° 0 mm 1 mps 754 mmHg 86%
    04:00 +13°C° 0 mm 1 mps 754 mmHg 85%
    05:00 +13°C° 0 mm 1 mps 755 mmHg 83%
    06:00 +13°C° 0 mm 1 mps 755 mmHg 81%
    07:00 +12°C° 0 mm 0 mps 755 mmHg 79%
    08:00 +15°C° 0 mm 1 mps 755 mmHg 74%
    09:00 +16°C° 0 mm 1 mps 755 mmHg 69%
    10:00 +18°C° 0 mm 1 mps 755 mmHg 64%
    11:00 +19°C° 0 mm 1 mps 755 mmHg 63%
    12:00 +19°C° 0 mm 2 mps 755 mmHg 62%
    13:00 +19°C° 0 mm 2 mps 755 mmHg 60%
    14:00 +19°C° 0 mm 2 mps 755 mmHg 61%
    15:00 +19°C° 0 mm 2 mps 754 mmHg 62%
    16:00 +19°C° 0 mm 2 mps 754 mmHg 63%
    17:00 +18°C° 0 mm 1 mps 754 mmHg 70%
    18:00 +15°C° 0 mm 1 mps 755 mmHg 76%
    19:00 +13°C° 0 mm 1 mps 755 mmHg 82%
    20:00 +13°C° 0 mm 1 mps 755 mmHg 83%
    21:00 +13°C° 0 mm 1 mps 755 mmHg 83%
    22:00 +12°C° 0 mm 2 mps 755 mmHg 84%
    23:00 +13°C° 0 mm 2 mps 754 mmHg 84%

    30 September, Sunday

    Time Temperature Precipitation Wind Pressure Humidity
    00:00 +13°C° 0 mm 2 mps 754 mmHg 83%
    01:00 +13°C° 0 mm 2 mps 754 mmHg 83%
    02:00 +13°C° 0.3 mm 2 mps 754 mmHg 85%
    03:00 +13°C° 0.3 mm 1 mps 754 mmHg 88%
    04:00 +13°C° 0.3 mm 1 mps 754 mmHg 90%
    05:00 +13°C° 1.3 mm 1 mps 754 mmHg 92%
    06:00 +13°C° 1.3 mm 1 mps 754 mmHg 94%
    07:00 +13°C° 1.3 mm 1 mps 754 mmHg 96%
    08:00 +13°C° 0.3 mm 1 mps 754 mmHg 94%
    09:00 +14°C° 0.3 mm 1 mps 753 mmHg 92%
    10:00 +15°C° 0.3 mm 1 mps 753 mmHg 91%
    11:00 +15°C° 0.2 mm 2 mps 753 mmHg 92%
    12:00 +15°C° 0.2 mm 2 mps 753 mmHg 93%
    13:00 +14°C° 0.2 mm 2 mps 752 mmHg 94%
    14:00 +14°C° 0.1 mm 2 mps 752 mmHg 93%
    15:00 +14°C° 0.1 mm 2 mps 752 mmHg 92%
    16:00 +13°C° 0.1 mm 2 mps 753 mmHg 92%
    17:00 +13°C° 0.1 mm 2 mps 753 mmHg 92%
    18:00 +12°C° 0.1 mm 1 mps 753 mmHg 92%
    19:00 +12°C° 0.1 mm 1 mps 754 mmHg 93%
    20:00 +11°C° 0 mm 1 mps 754 mmHg 93%
    21:00 +11°C° 0 mm 1 mps 755 mmHg 93%
    22:00 +11°C° 0 mm 1 mps 755 mmHg 93%
    23:00 +10°C° 0 mm 1 mps 756 mmHg 93%
    Show more